Location: Couteron
(43.5992°N, 5.4466°E)
Time: 21:47:48
(UTC+00:00)

Daily predictions for brighter satellites

Satellite Brightness Start Highest point End
(mag) Time Altitude Azimuth Time Altitude Azimuth Time Altitude Azimuth
RESURS DK-1 2.9 16:25:33 10° SW 16:29:37 60° WNW 16:33:44 10° NNE
Cosmos 1733 Rocket 3.1 16:26:39 10° N 16:30:59 57° E 16:35:19 10° SSE
COSMOS 2428 3.2 16:26:45 10° SW 16:32:22 63° WNW 16:38:03 10° NNE
Cosmos 304 Rocket 4.5 16:27:42 10° NNW 16:32:27 60° WSW 16:37:10 10° S
FENGYUN 3A 4.5 16:28:48 10° S 16:34:07 58° W 16:39:29 10° NNW
STARLINK-52 4.2 16:31:38 10° SSW 16:34:49 33° SE 16:38:01 10° ENE
Cosmos 1900 4.5 16:31:09 10° NNW 16:35:56 50° NE 16:40:39 10° SE
Genesis I 4.4 16:35:41 10° N 16:38:46 22° NE 16:41:49 10° E
Meteor 1-5 Rocket 4.1 16:34:21 10° N 16:39:53 80° E 16:45:14 10° SSE
ISS -3.5 16:37:30 10° WNW 16:40:51 72° SW 16:44:11 10° SE
USA 215 3.5 16:34:31 10° NE 16:41:03 72° NW 16:47:33 10° WSW
Feng Yun 1-1 Rocket 4.3 16:36:19 10° SE 16:41:33 55° ENE 16:46:50 10° N
STARLINK-29 3.8 16:39:34 10° SSW 16:42:56 44° SE 16:46:13 11° ENE
Cosmos 292 Rocket 4.4 16:38:31 10° N 16:43:01 36° ENE 16:47:27 10° SE
Cosmos 1666 3.5 16:42:40 10° NNE 16:45:55 27° ENE 16:49:09 10° SE
CZ-4B R/B 4.0 16:41:27 10° S 16:46:39 56° W 16:51:59 10° NNW
Cosmos 1536 3.0 16:44:12 10° N 16:48:05 47° ENE 16:51:56 10° SSE
Cosmos 921 Rocket 4.2 16:45:08 10° NNE 16:48:24 21° ENE 16:51:42 10° ESE
NOSS 0 Rocket 4.0 16:44:15 10° SSW 16:50:28 89° WNW 16:56:45 10° NNE
STARLINK-60 3.0 16:47:27 10° SW 16:50:49 84° SSE 16:53:48 13° NE
NOAA 12 4.4 16:50:08 10° SE 16:55:09 46° ENE 17:00:11 10° N
Lacrosse 5 rocket 2.5 16:53:06 10° WSW 16:57:06 36° NNW 17:00:54 10° NE
Cosmos 2251 Rocket 3.7 16:52:06 10° SSW 16:57:24 77° WNW 17:02:42 10° NNE
BREEZE-M R/B 3.9 16:51:50 10° WNW 16:57:38 38° N 17:00:16 15° ENE
Cosmos 2278 Rocket 2.4 16:52:59 10° NNW 16:58:40 79° WSW 17:04:18 10° SSE
Cosmos 2360 Rocket 4.5 16:56:36 10° W 17:00:06 16° NW 17:03:37 10° N
COBE Rocket 3.7 16:56:28 10° NNE 17:01:07 70° E 17:05:48 10° S
Cosmos 1782 Rocket 4.4 16:59:11 10° NNE 17:02:57 28° ENE 17:06:40 10° SE
SL-4 R/B 3.2 17:01:23 10° WNW 17:04:38 27° N 17:07:13 14° NE
Envisat 3.2 17:00:48 10° SE 17:05:38 47° ENE 17:10:30 10° N
Aureole 1 Rocket 2.4 17:03:35 10° S 17:06:26 46° ESE 17:08:48 15° NE
Okean 1 4.5 17:04:55 10° SE 17:08:02 22° E 17:09:47 17° NE
CZ-4B R/B 4.4 17:07:16 10° NW 17:08:50 13° WNW 17:10:23 10° W
Cosmos 1862 Rocket 4.0 17:05:25 10° SSW 17:09:43 64° W 17:14:06 10° N
Cosmos 2369 Rocket 3.6 17:06:59 10° N 17:10:22 16° NE 17:11:13 15° NE
CZ-4 R/B 2.3 17:08:13 10° ESE 17:11:23 24° ENE 17:14:31 10° NNE
Cosmos 1703 Rocket 3.8 17:08:42 10° SSE 17:12:59 48° E 17:17:19 10° NNE
SL-16 R/B 2.6 17:07:52 10° S 17:13:11 43° ESE 17:17:46 14° NE
Cosmos 1743 3.7 17:11:16 10° NNE 17:14:34 26° ENE 17:17:51 10° SE
USA 267 3.3 17:08:01 10° SE 17:14:34 89° SW 17:21:10 10° NW
Cosmos 407 Rocket 4.0 17:09:54 10° SSE 17:14:39 38° ESE 17:18:34 15° NE
YAOGAN 6 3.1 17:15:58 10° SE 17:19:12 35° ENE 17:22:31 10° N
Okean O Rocket 4.2 17:15:50 10° SSW 17:19:18 23° W 17:22:46 10° NW
Cosmos 2237 Rocket 2.6 17:17:18 10° SW 17:22:56 63° WNW 17:28:37 10° NNE
Cosmos 2333 Rocket 4.0 17:19:26 10° WSW 17:24:15 27° NW 17:29:05 10° N
Cosmos 1812 4.3 17:21:33 10° SW 17:25:06 35° WNW 17:28:42 10° N
CORIOLIS 4.4 17:20:16 10° S 17:25:42 76° WSW 17:31:11 10° NNW
BREEZE-M DEB (TANK) 1.8 17:21:32 10° WNW 17:26:22 78° NNE 17:27:32 29° ESE
Cosmos 1092 Rocket 4.0 17:20:14 10° S 17:26:33 82° E 17:32:50 10° N
Cosmos 2242 Rocket 4.0 17:22:11 10° SSW 17:26:43 69° W 17:31:19 10° N
Shenzhou-11 Module 2.7 17:26:01 10° W 17:28:40 43° SSW 17:29:54 24° SE
Cosmos 2219 Rocket 4.2 17:30:14 10° W 17:34:36 23° NW 17:39:01 10° N
Cosmos 1867 4.0 17:33:25 10° NNW 17:38:35 41° NE 17:41:04 26° E
Okean-O 2.8 17:34:38 10° S 17:39:03 76° WSW 17:43:31 10° NNW
BREEZE-M DEB (TANK) 2.1 17:36:20 10° WNW 17:40:40 63° N 17:41:22 46° ENE
Cosmos 1943 Rocket 2.9 17:40:01 10° N 17:44:59 30° NE 17:45:18 30° ENE
FALCON 9 DEB 3.8 17:42:14 10° WSW 17:45:38 47° NNW 17:46:30 37° NNE
Cosmos 1908 Rocket 4.2 17:41:48 10° NNW 17:46:07 55° W 17:50:21 10° S
COSMO-SKYMED 1 2.4 17:47:53 17° NNE 17:51:14 84° ESE 17:55:34 10° SSW
CSL-04 Rocket 3.6 17:48:26 10° SSE 17:53:36 59° ENE 17:58:49 10° N
YAOGAN 1 2.5 17:51:39 10° SSE 17:55:54 61° ENE 18:00:11 10° N
Okean 1-7 3.3 17:51:48 10° SSW 17:56:07 68° W 18:00:20 11° N
CZ-4C R/B 3.8 17:53:26 10° SSE 17:54:43 15° SE 17:54:43 15° SE
Cosmos 1441 Rocket 3.9 17:55:35 10° NNW 17:59:19 54° W 18:02:58 10° S
S3M 4.0 17:54:39 10° N 18:00:41 51° ENE 18:06:37 10° SSE
CZ-4 R/B 4.5 17:57:34 10° S 18:01:44 81° WSW 18:05:56 10° NNW
Cosmos 2297 3.8 17:58:08 10° NNW 18:03:51 76° WSW 18:09:28 10° SSE
Cosmos 2266 Rocket 4.4 18:02:46 10° SSE 18:08:30 41° E 18:08:30 41° E
Cosmos 1190 Rocket 4.0 18:03:47 10° SSW 18:08:59 82° WNW 18:11:37 30° NNE
Cosmos 676 Rocket 3.9 18:06:01 10° S 18:11:06 63° ESE 18:11:47 57° ENE
CSL-04 Debris 4.1 18:05:53 10° SSE 18:11:20 85° ENE 18:16:48 10° NNW
STARLINK-52 4.3 18:08:42 10° W 18:11:47 38° NW 18:11:47 38° NW
STARLINK-43 3.8 18:08:40 10° SW 18:11:41 53° SSW 18:11:41 53° SSW
Cosmos 1553 Rocket 3.9 18:06:48 10° N 18:13:13 83° E 18:19:38 10° S
Genesis I 4.4 18:12:52 10° NW 18:16:31 40° WSW 18:18:59 18° S
Cosmos 1954 Rocket 3.8 18:14:16 10° S 18:19:22 71° ESE 18:19:42 68° E
Meteor 1-18 Rocket 4.5 18:17:02 10° SSW 18:22:42 69° W 18:27:35 14° N
USA 215 4.3 18:20:48 25° NNE 18:23:26 33° NNW 18:29:08 10° WNW
Cosmos 921 Rocket 4.4 18:22:50 10° NW 18:26:48 37° W 18:30:49 10° SSW
Cosmos 489 Rocket 4.4 18:21:00 10° NNW 18:27:24 89° WSW 18:33:46 10° SSE
Meteor 2-9 Rocket 4.2 18:26:32 10° NNW 18:32:27 85° W 18:38:13 10° S
Lacrosse 5 3.3 18:29:13 10° SSW 18:31:51 26° S 18:31:51 26° S
NOAA 11 4.2 18:29:41 10° S 18:35:08 79° WSW 18:40:39 10° NNW
Lacrosse 5 rocket 3.8 18:35:03 10° NW 18:36:32 13° NNW 18:36:32 13° NNW
SL-4 R/B 4.3 18:41:34 10° NW 18:42:49 18° NW 18:42:49 18° NW
Cosmos 2221 Rocket 4.5 18:41:20 10° SSW 18:45:39 47° WNW 18:45:40 47° WNW
CZ-4 R/B 3.4 18:43:02 10° SSW 18:46:20 26° W 18:49:35 10° NW
Cosmos 1140 Rocket 4.4 18:45:32 10° SW 18:50:26 45° WNW 18:51:25 40° NNW
Cosmos 2369 Rocket 3.1 18:49:37 10° NNW 18:53:04 39° NNW 18:53:04 39° NNW
SL-16 R/B 3.7 18:52:23 10° WSW 18:57:25 31° NW 18:59:41 24° NNW
Cosmos 1603 4.5 18:58:12 10° SSW 19:02:00 44° SSW 19:02:00 44° SSW
NOSS 3-1 (C) 4.1 18:57:18 10° NNW 19:03:58 64° NNE 19:03:58 64° NNE
USA 229 DEB 4.1 19:06:42 10° NW 19:12:26 58° NNW 19:12:26 58° NNW
USA 229 4.1 19:06:49 10° NW 19:12:30 57° NNW 19:12:30 57° NNW
Cosmos 1943 Rocket 3.7 19:23:33 10° NW 19:26:54 32° WNW 19:26:54 32° WNW
Cosmos 2344 4.3 19:20:45 10° NW 19:30:36 79° NE 19:31:31 75° E
CZ-3B R/B 4.4 19:30:20 10° SSW 19:32:13 16° S 19:32:13 16° S
